KLM313 LBWN-LTFM

Flight info

Callsign KLM313
Flight time 0h 36m
Altitude 31000
Route IVGOT DCT RIXEN
Aircraft B738/M-SDE2E3FGHIRWXY/LB1

Departure

Time 2026-05-04 13:06
Airport Varna Airport (LBWN)

Arrival

Time 2026-05-04 13:43
Airport İstanbul Airport (LTFM)
Time Latitude Longitude Altitude Speed Heading
2026-05-04 12:37 43.23523 27.83099 231 ft 0 kts 51°
2026-05-04 12:59 43.23530 27.83103 233 ft 4 kts 13°
2026-05-04 12:59 43.23529 27.83045 231 ft 11 kts 232°
2026-05-04 12:59 43.23464 27.82949 231 ft 14 kts 238°
2026-05-04 12:59 43.23454 27.82925 230 ft 0 kts 238°
2026-05-04 13:00 43.23438 27.82883 232 ft 13 kts 253°
2026-05-04 13:00 43.23441 27.82716 232 ft 19 kts 277°
2026-05-04 13:00 43.23457 27.82538 229 ft 19 kts 277°
2026-05-04 13:00 43.23469 27.82365 228 ft 18 kts 274°
2026-05-04 13:01 43.23469 27.82197 227 ft 17 kts 273°
2026-05-04 13:01 43.23485 27.82037 226 ft 17 kts 279°
2026-05-04 13:01 43.23505 27.81884 226 ft 16 kts 283°
2026-05-04 13:01 43.23518 27.81735 225 ft 16 kts 276°
2026-05-04 13:02 43.23530 27.81583 224 ft 16 kts 275°
2026-05-04 13:02 43.23537 27.81430 224 ft 16 kts 277°
2026-05-04 13:02 43.23552 27.81285 223 ft 15 kts 277°
2026-05-04 13:02 43.23566 27.81129 222 ft 18 kts 276°
2026-05-04 13:03 43.23551 27.80963 223 ft 18 kts 229°
2026-05-04 13:03 43.23505 27.80932 222 ft 0 kts 187°
2026-05-04 13:04 43.23494 27.80933 223 ft 9 kts 174°
2026-05-04 13:04 43.23413 27.80982 221 ft 15 kts 147°
2026-05-04 13:05 43.23335 27.81080 221 ft 11 kts 115°
2026-05-04 13:05 43.23321 27.81143 223 ft 0 kts 99°
2026-05-04 13:05 43.23303 27.81305 221 ft 57 kts 99°
2026-05-04 13:06 43.23221 27.82252 228 ft 140 kts 97°
2026-05-04 13:06 43.23065 27.83854 521 ft 190 kts 95°
2026-05-04 13:06 43.22872 27.85760 1200 ft 217 kts 94°
2026-05-04 13:06 43.22669 27.87984 1504 ft 255 kts 94°
2026-05-04 13:07 43.22443 27.90562 1827 ft 289 kts 94°
2026-05-04 13:07 43.22205 27.93283 2853 ft 279 kts 93°
2026-05-04 13:07 43.21909 27.95750 4494 ft 249 kts 105°
2026-05-04 13:07 43.20923 27.97664 5724 ft 253 kts 132°
2026-05-04 13:08 43.19447 27.99204 6231 ft 281 kts 144°
2026-05-04 13:08 43.17931 28.00363 6904 ft 0 kts 145°
2026-05-04 13:08 43.16394 28.01669 7717 ft 293 kts 146°
2026-05-04 13:08 43.15022 28.02628 8371 ft 298 kts 148°
2026-05-04 13:09 43.13139 28.03862 9257 ft 302 kts 149°
2026-05-04 13:09 43.11232 28.05108 10111 ft 306 kts 148°
2026-05-04 13:09 43.09276 28.06414 10612 ft 323 kts 148°
2026-05-04 13:09 43.07177 28.07843 10813 ft 349 kts 148°
2026-05-04 13:10 43.04934 28.09388 11008 ft 373 kts 148°
2026-05-04 13:10 43.02558 28.11048 11313 ft 391 kts 148°
2026-05-04 13:10 43.00118 28.12759 11960 ft 397 kts 148°
2026-05-04 13:10 42.97683 28.14467 12751 ft 400 kts 148°
2026-05-04 13:11 42.95198 28.16212 13531 ft 404 kts 147°
2026-05-04 13:11 42.92678 28.17987 14094 ft 411 kts 147°
2026-05-04 13:11 42.90918 28.19473 14646 ft 409 kts 139°
2026-05-04 13:11 42.88457 28.21491 15360 ft 415 kts 146°
2026-05-04 13:12 42.85865 28.23254 16096 ft 418 kts 149°
2026-05-04 13:12 42.83234 28.24948 16761 ft 420 kts 149°
2026-05-04 13:12 42.80585 28.26665 17000 ft 422 kts 148°
2026-05-04 13:12 42.77904 28.28448 17023 ft 435 kts 148°
2026-05-04 13:13 42.75168 28.30310 17032 ft 444 kts 148°
2026-05-04 13:13 42.72418 28.32204 17044 ft 442 kts 147°
2026-05-04 13:13 42.69694 28.34092 17016 ft 438 kts 147°
2026-05-04 13:13 42.66989 28.35976 17019 ft 436 kts 147°
2026-05-04 13:14 42.64293 28.37859 17019 ft 436 kts 147°
2026-05-04 13:14 42.61590 28.39746 17019 ft 437 kts 147°
2026-05-04 13:14 42.58880 28.41637 17018 ft 438 kts 147°
2026-05-04 13:14 42.56165 28.43527 17022 ft 439 kts 147°
2026-05-04 13:15 42.53446 28.45418 17018 ft 440 kts 147°
2026-05-04 13:15 42.50713 28.47316 17039 ft 441 kts 147°
2026-05-04 13:15 42.47982 28.49210 17022 ft 441 kts 147°
2026-05-04 13:15 42.45251 28.51103 17019 ft 441 kts 147°
2026-05-04 13:16 42.42523 28.52991 17016 ft 441 kts 148°
2026-05-04 13:16 42.39827 28.54855 17005 ft 440 kts 148°
2026-05-04 13:16 42.37105 28.56736 17013 ft 440 kts 148°
2026-05-04 13:16 42.34384 28.58612 17012 ft 440 kts 148°
2026-05-04 13:17 42.31654 28.60493 17007 ft 439 kts 148°
2026-05-04 13:17 42.28934 28.62367 17007 ft 439 kts 148°
2026-05-04 13:17 42.26211 28.64241 17010 ft 439 kts 148°
2026-05-04 13:17 42.23484 28.66117 17006 ft 439 kts 148°
2026-05-04 13:18 42.20760 28.67988 16999 ft 441 kts 148°
2026-05-04 13:18 42.17850 28.69391 16991 ft 453 kts 167°
2026-05-04 13:18 42.14679 28.69381 17022 ft 462 kts 186°
2026-05-04 13:18 42.11572 28.68213 17007 ft 468 kts 202°
2026-05-04 13:19 42.08652 28.66279 17027 ft 469 kts 206°
2026-05-04 13:19 42.06734 28.64942 17018 ft 469 kts 206°
2026-05-04 13:19 42.03850 28.62917 17005 ft 469 kts 206°
2026-05-04 13:19 42.00941 28.60884 17009 ft 469 kts 206°
2026-05-04 13:20 41.98037 28.58877 17008 ft 469 kts 206°
2026-05-04 13:20 41.95136 28.56892 17012 ft 468 kts 206°
2026-05-04 13:20 41.92228 28.54920 17013 ft 467 kts 206°
2026-05-04 13:20 41.89324 28.52959 16957 ft 468 kts 206°
2026-05-04 13:21 41.86425 28.51007 16567 ft 459 kts 206°
2026-05-04 13:21 41.83630 28.49127 16165 ft 441 kts 206°
2026-05-04 13:21 41.80934 28.47315 15684 ft 426 kts 206°
2026-05-04 13:21 41.78328 28.45564 15202 ft 414 kts 206°
2026-05-04 13:22 41.75781 28.43855 14724 ft 404 kts 206°
2026-05-04 13:22 41.73294 28.42187 14247 ft 399 kts 206°
2026-05-04 13:22 41.70814 28.40526 13710 ft 400 kts 206°
2026-05-04 13:22 41.68318 28.38856 13038 ft 400 kts 207°
2026-05-04 13:23 41.65851 28.37206 12376 ft 393 kts 207°
2026-05-04 13:23 41.63424 28.35585 11732 ft 386 kts 207°
2026-05-04 13:23 41.61042 28.33995 11101 ft 380 kts 208°
2026-05-04 13:23 41.58702 28.32433 10488 ft 374 kts 208°
2026-05-04 13:24 41.56436 28.30924 10154 ft 360 kts 208°
2026-05-04 13:24 41.54221 28.29561 10006 ft 343 kts 199°
2026-05-04 13:24 41.51901 28.29067 9548 ft 337 kts 177°
2026-05-04 13:25 41.47364 28.29933 8826 ft 319 kts 171°
2026-05-04 13:25 41.45198 28.30340 8557 ft 310 kts 171°
2026-05-04 13:25 41.43090 28.30723 8278 ft 302 kts 172°
2026-05-04 13:25 41.41034 28.31091 8000 ft 294 kts 172°
2026-05-04 13:26 41.39037 28.31445 7735 ft 286 kts 172°
2026-05-04 13:26 41.37086 28.31790 7481 ft 279 kts 172°
2026-05-04 13:26 41.35183 28.32124 7229 ft 273 kts 173°
2026-05-04 13:26 41.33312 28.32452 6981 ft 269 kts 173°
2026-05-04 13:27 41.31471 28.32775 6716 ft 265 kts 174°
2026-05-04 13:27 41.29651 28.33093 6320 ft 266 kts 174°
2026-05-04 13:27 41.27796 28.33416 5801 ft 271 kts 173°
2026-05-04 13:27 41.25909 28.33744 5297 ft 275 kts 173°
2026-05-04 13:28 41.24022 28.34072 5036 ft 268 kts 173°
2026-05-04 13:28 41.22225 28.34386 4989 ft 255 kts 173°
2026-05-04 13:28 41.20486 28.34690 5005 ft 251 kts 173°
2026-05-04 13:28 41.18740 28.34993 4999 ft 255 kts 173°
2026-05-04 13:29 41.16982 28.35299 5042 ft 254 kts 173°
2026-05-04 13:29 41.15226 28.35604 5018 ft 254 kts 173°
2026-05-04 13:29 41.13487 28.35906 5019 ft 251 kts 173°
2026-05-04 13:29 41.11787 28.36201 4984 ft 248 kts 173°
2026-05-04 13:30 41.10056 28.36502 4987 ft 249 kts 173°
2026-05-04 13:30 41.08321 28.36803 5002 ft 253 kts 173°
2026-05-04 13:30 41.06591 28.37103 5002 ft 254 kts 172°
2026-05-04 13:30 41.04847 28.37405 4983 ft 252 kts 172°
2026-05-04 13:31 41.03111 28.37706 4962 ft 252 kts 172°
2026-05-04 13:31 41.01373 28.38006 4968 ft 251 kts 172°
2026-05-04 13:31 40.99659 28.38411 4957 ft 251 kts 158°
2026-05-04 13:31 40.98298 28.39730 4972 ft 239 kts 120°
2026-05-04 13:32 40.97645 28.41672 4973 ft 228 kts 95°
2026-05-04 13:32 40.97508 28.43730 4963 ft 224 kts 83°
2026-05-04 13:32 40.97515 28.45796 4960 ft 225 kts 82°
2026-05-04 13:32 40.97538 28.47872 4955 ft 227 kts 82°
2026-05-04 13:33 40.97559 28.49970 4947 ft 228 kts 82°
2026-05-04 13:33 40.97573 28.52070 4942 ft 227 kts 82°
2026-05-04 13:33 40.97581 28.54115 4923 ft 218 kts 82°
2026-05-04 13:33 40.97587 28.56095 4917 ft 213 kts 82°
2026-05-04 13:34 40.97594 28.58062 4928 ft 215 kts 82°
2026-05-04 13:34 40.97598 28.60049 4939 ft 217 kts 82°
2026-05-04 13:34 40.97604 28.62047 4935 ft 218 kts 82°
2026-05-04 13:34 40.97607 28.64059 4919 ft 218 kts 82°
2026-05-04 13:35 40.97607 28.66061 4925 ft 217 kts 82°
2026-05-04 13:35 40.97607 28.70051 4923 ft 216 kts 83°
2026-05-04 13:35 40.97651 28.72017 4905 ft 208 kts 72°
2026-05-04 13:36 40.98372 28.73490 4919 ft 188 kts 25°
2026-05-04 13:36 40.99629 28.73718 4943 ft 187 kts 353°
2026-05-04 13:36 41.00941 28.73553 4926 ft 191 kts 354°
2026-05-04 13:36 41.02259 28.73374 4934 ft 188 kts 355°
2026-05-04 13:37 41.03567 28.73264 4738 ft 187 kts 357°
2026-05-04 13:37 41.04867 28.73207 4493 ft 187 kts 358°
2026-05-04 13:37 41.06145 28.73171 4246 ft 186 kts 358°
2026-05-04 13:37 41.07019 28.73151 4084 ft 186 kts 358°
2026-05-04 13:38 41.08742 28.73116 3731 ft 185 kts 359°
2026-05-04 13:38 41.09990 28.73093 3509 ft 173 kts 359°
2026-05-04 13:38 41.11169 28.73069 3291 ft 167 kts 359°
2026-05-04 13:38 41.12329 28.73067 3129 ft 166 kts
2026-05-04 13:39 41.13507 28.73060 2851 ft 173 kts 358°
2026-05-04 13:39 41.14706 28.72908 2625 ft 176 kts 354°
2026-05-04 13:39 41.15899 28.72859 2408 ft 168 kts
2026-05-04 13:39 41.17067 28.73060 2024 ft 170 kts 358°
2026-05-04 13:40 41.18198 28.72964 1876 ft 152 kts 353°
2026-05-04 13:40 41.19196 28.72882 1689 ft 140 kts 357°
2026-05-04 13:40 41.20162 28.72854 1417 ft 138 kts 359°
2026-05-04 13:40 41.21108 28.72845 1257 ft 135 kts 359°
2026-05-04 13:41 41.22036 28.72855 1091 ft 132 kts
2026-05-04 13:41 41.22974 28.72854 949 ft 137 kts 359°
2026-05-04 13:41 41.23908 28.72826 733 ft 132 kts 356°
2026-05-04 13:42 41.25639 28.72775 308 ft 116 kts 359°
2026-05-04 13:42 41.26463 28.72766 201 ft 119 kts 358°
2026-05-04 13:42 41.27184 28.72754 174 ft 80 kts 359°
2026-05-04 13:42 41.27648 28.72746 175 ft 50 kts 359°
2026-05-04 13:43 41.27946 28.72784 177 ft 36 kts 12°
2026-05-04 13:43 41.28032 28.72821 177 ft 10 kts 24°
2026-05-04 13:43 41.28095 28.72865 176 ft 10 kts 32°
2026-05-04 13:43 41.28122 28.72942 175 ft 10 kts 113°
2026-05-04 13:44 41.28059 28.72968 175 ft 10 kts 176°
2026-05-04 13:44 41.27992 28.72966 175 ft 9 kts 186°
2026-05-04 13:44 41.27927 28.72970 175 ft 9 kts 174°
2026-05-04 13:44 41.27863 28.72976 175 ft 9 kts 176°
2026-05-04 13:45 41.27798 28.72979 175 ft 10 kts 185°
2026-05-04 13:45 41.27720 28.72972 175 ft 12 kts 180°
2026-05-04 13:45 41.27634 28.72974 175 ft 13 kts 179°
2026-05-04 13:45 41.27535 28.72977 175 ft 16 kts 179°
2026-05-04 13:46 41.27412 28.72980 175 ft 18 kts 179°
2026-05-04 13:46 41.27287 28.72984 175 ft 18 kts 179°
2026-05-04 13:46 41.27167 28.72984 175 ft 17 kts 180°
2026-05-04 13:46 41.27051 28.72987 175 ft 16 kts 179°
2026-05-04 13:47 41.26939 28.72987 175 ft 16 kts 180°
2026-05-04 13:47 41.26865 28.73039 175 ft 13 kts 108°
2026-05-04 13:47 41.26858 28.73156 175 ft 13 kts 91°
2026-05-04 13:47 41.26859 28.73257 175 ft 11 kts 90°
2026-05-04 13:48 41.26859 28.73353 175 ft 10 kts 89°
2026-05-04 13:48 41.26860 28.73447 175 ft 10 kts 90°
2026-05-04 13:48 41.26833 28.73521 176 ft 10 kts 160°
2026-05-04 13:48 41.26785 28.73521 176 ft 0 kts 178°